Location: Newark
(45.9456°N, 15.4064°E)
Time: 04:57:31
(UTC+00:00)

SR - Pass Details

Date: 27 January 2020
Orbit: 575 x 881 km, 66.7° (Epoch: 18 February)

Event Time Altitude Azimuth Distance (km) Brightness Sun altitude
Rises 02:43:59 0° 328° (NNW) 3,459 - -38.6°
Reaches altitude 10° 02:48:13 10° 356° (N) 2,477 - -37.9°
Exits shadow 02:50:07 12° 16° (NNE) 2,278 ? -37.5°
Maximum altitude 02:50:37 13° 21° (NNE) 2,262 ? -37.5°
Drops below altitude 10° 02:52:58 10° 47° (NE) 2,405 ? -37.1°
Sets 02:56:56 0° 76° (ENE) 3,261 ? -36.4°
